COSMOS 504

Satellite information

Favourite Embed

Satellite Type and Status

PAYLOADIN ORBIT

Key statistics

Satellite COSMOS 504 at a glance.

Uptime

19464

Days in orbit

Revolutions

≈ 12.6

Per day

Orbit

LEO

Low Earth Orbit

Inclination

74.0

Latest

Satellite identification and parameters

Extended collection of information and parameters for COSMOS 504.

Object identification

Identified? True

Debris? False

Object name: COSMOS 504

International designator: 1972-057A

Object number (NORAD): 6117

Object ID (CCSDS): 6117

Country: COMMONWEALTH OF INDEPENDENT STATES (CIS)

Current information (Y/N): Y

RCS size: MEDIUM

Orbital parameters

Period: 113.958 minutes

Inclination: 74.0283 deg

SMA: 7786.172 km

Apoapsis: 1495.523 km

Periapsis: 1320.55 km

RAAN: 333.9761 deg

Eccentricy: 0.0112361

Argument of periapsis: 336.6913 deg

Mean anomaly: 176.3678 deg

Mean motion: 12.63620915 rev/day

Mean motion (dot): 0.00000017 rev/day2

B* drag term: 0.00017975625 1/REarth

Two-line elements (TLE)

Creation date: Nov. 1, 2025, 7:40 p.m.

Reference frame: TEME

Reference center: EARTH

Epoch: Nov. 1, 2025, 12:53 p.m. UTC

TLE line 0: 0 COSMOS 504

TLE line 1: 1 06117U 72057A 25305.53698354 .00000017 00000-0 17976-3 0 9995

TLE line 2: 2 06117 74.0283 333.9761 0112361 336.6913 176.3678 12.63620915457849

Live tracking on map

Real-time ground track for satellite COSMOS 504.

In-orbit conjunctions

There are no conjunctions computed for COSMOS 504, at the moment. Check back to stay up to date, as we update our databases every day.

Go to all conjunctions

Associated space launch

Military communications satellites

COSMOS 504 was lifted into orbit during the mission ‘Kosmos-3M | Strela-1M 25-32’, on board a Kosmos-3M space rocket.

The launch took place on July 20, 1972, 6:10 p.m. from 132/2.

For more information about the launch, click the button.

Launch to space Kosmos-3M | Strela-1M 25-32
Kosmos-3M | Strela-1M 25-32

Agency: N/A

Status: Launch Successful

Launch date: July 20, 1972, 6:10 p.m. UTC

Rocket: Kosmos-3M

Launch pad: 132/2

Location: Plesetsk Cosmodrome, Russian Federation

...

Latest news about this satellite

There are no fresh news available about this satellite. Check back as we update our databases every day.


Newsletter sign-up

Weekly statistics, charts and insights to help you stay on top of the space industry.